[ hide orbit diagram ]
For accurate long-term ephemerides, please instead use our Horizons system.This orbit viewer was implemented using two-body methods, and hence should not be used for determining accurate long-term trajectories (over several years or decades) or planetary encounter circumstances.
Orbital Elements at Epoch 2459000.5 (2020-May-31.0) TDB
Reference: JPL 16 (heliocentric ecliptic J2000)
Element | Value | Uncertainty (1-sigma) | Units |
e | .1637507542572145 | 4.0533e-08 | |
a | 2.233062201867229 | 1.3488e-08 | au |
q | 1.867396582008194 | 8.6342e-08 | au |
i | 4.574935743751793 | 4.3879e-06 | deg |
node | 263.7899053612514 | 7.1266e-05 | deg |
peri | 20.4188611288811 | 7.3935e-05 | deg |
M | 29.78772706545658 | 2.0098e-05 | deg |
tp | 2458899.647998234230 (2020-Feb-20.14799823) | 6.7675e-05 | TDB |
period | 1218.84830473623 3.34 | 1.1043e-05 3.023e-08 | d yr |
n | .2953607914956303 | 2.6761e-09 | deg/d |
Q | 2.598727821726264 | 1.5697e-08 | au |
|
| | Orbit Determination Parameters
Additional Information
|
[ show covariance matrix ]
Physical Parameter Table
Parameter |
Symbol |
Value |
Units |
Sigma |
Reference |
Notes |
absolute magnitude |
H |
17.4 |
|
n/a |
MPO434004 |
|
|
312751 (2010 TG92) Discovered 2006-Apr-24 by Broughton, J. at Reedy Creek |
Reference: 20120109/Numbers.arc | Last Updated: 2012-01-11 |
|
[ show close-approach data ]
|